Weather History for Grand Junction, CO

Change the Weather History Date:

Monday, April 1, 2013

  Actual Average Record
Temperature  
Mean Temperature 55 °F 48 °F  
Max Temperature 69 °F 61 °F 78 °F (1966)
Min Temperature 41 °F 34 °F 14 °F (1920)
Degree Days  
Heating Degree Days 10 17  
Month to date heating degree days 10 17  
Since 1 July heating degree days 5422 5049  
Cooling Degree Days 0 0  
Month to date cooling degree days 0 0  
Year to date cooling degree days 0 0  
Growing Degree Days 6 (Base 50)    
Moisture  
Dew Point 29 °F    
Average Humidity 43    
Maximum Humidity 67    
Minimum Humidity 18    
Precipitation  
Precipitation 0.08 in 0.03 in 0.36 in (2010)
Month to date precipitation 0.08 0.03  
Year to date precipitation 1.43 2.07  
Snow  
Snow 0.00 in 0.10 in 3.30 in (1975)
Month to date snowfall 0.0 0.1  
Since 1 July snowfall 20.0 18.2  
Snow Depth 0.00 in    
Sea Level Pressure  
Sea Level Pressure 29.82 in    
Wind  
Wind Speed 10 mph (East)    
Max Wind Speed 24 mph    
Max Gust Speed 31 mph    
Visibility 10 miles    
Events Rain , Thunderstorm    
T = Trace of Precipitation, MM = Missing Value Source: NWS Daily Summary

Daily Weather History Graph

Daily Weather History Graph

Search for Another Location

Airport:

Trip Planner

Search our weather history database for the weather conditions in past years. The results will help you decide how hot, cold, wet, or windy it might be!

Date:

Astronomy

Apr. 01, 2013 Rise Set
Actual Time 6:58 AM MDT 7:38 PM MDT
Civil Twilight 6:31 AM MDT 8:05 PM MDT
Nautical Twilight 5:59 AM MDT 8:37 PM MDT
Astronomical Twilight 5:26 AM MDT 9:10 PM MDT
Moon 12:47 AM MDT 10:50 AM MDT
Length of Visible Light 13h 34m
Length of Day
12h 40m
Waning Gibbous, 66% of the Moon is Illuminated
Apr 1
Waning Gibbous
Apr 2
Last Quarter
Apr 10
New
Apr 18
First Quarter
Apr 25
Full

Hourly Weather History & Observations

Time (MDT) Temp. Dew Point Humidity Pressure Visibility Wind Dir Wind Speed Gust Speed Precip Events Conditions
12:53 AM 50.0 °F 15.1 °F 25% 29.86 in 10.0 mi East 4.6 mph - N/A   Overcast
1:53 AM 48.0 °F 16.0 °F 28% 29.86 in 10.0 mi ENE 9.2 mph - N/A   Partly Cloudy
2:53 AM 50.0 °F 18.0 °F 28% 29.84 in 10.0 mi ENE 6.9 mph - N/A   Scattered Clouds
3:53 AM 48.0 °F 19.9 °F 33% 29.85 in 10.0 mi ESE 10.4 mph - N/A   Mostly Cloudy
4:53 AM 51.1 °F 21.9 °F 32% 29.83 in 10.0 mi East 11.5 mph - N/A   Overcast
5:53 AM 48.0 °F 23.0 °F 37% 29.84 in 10.0 mi ESE 11.5 mph - 0.00 in   Partly Cloudy
6:53 AM 48.9 °F 26.1 °F 41% 29.85 in 10.0 mi ESE 13.8 mph - N/A   Mostly Cloudy
7:53 AM 48.9 °F 28.0 °F 44% 29.88 in 10.0 mi ESE 15.0 mph - N/A   Clear
8:53 AM 54.0 °F 34.0 °F 47% 29.90 in 10.0 mi SE 11.5 mph 21.9 mph N/A   Scattered Clouds
9:04 AM 53.6 °F 35.6 °F 51% 30.02 in 6.0 mi South 23.0 mph 29.9 mph 0.00 in Rain , Thunderstorm Light Thunderstorms and Rain
9:25 AM 51.8 °F 37.4 °F 58% 30.00 in 10.0 mi NE 11.5 mph - 0.07 in Rain Light Rain
9:53 AM 54.0 °F 43.0 °F 66% 29.90 in 10.0 mi ENE 11.5 mph - 0.08 in   Mostly Cloudy
10:53 AM 57.0 °F 39.0 °F 51% 29.86 in 10.0 mi SE 10.4 mph - N/A   Mostly Cloudy
11:53 AM 62.1 °F 39.9 °F 44% 29.81 in 10.0 mi East 8.1 mph - N/A   Mostly Cloudy
12:53 PM 57.9 °F 37.9 °F 47% 29.80 in 10.0 mi NNW 20.7 mph - 0.00 in   Mostly Cloudy
1:53 PM 63.0 °F 36.0 °F 37% 29.77 in 10.0 mi NNW 13.8 mph - N/A   Mostly Cloudy
2:53 PM 63.0 °F 32.0 °F 31% 29.72 in 10.0 mi East 3.5 mph - N/A   Mostly Cloudy
3:53 PM 66.0 °F 28.0 °F 24% 29.69 in 10.0 mi SE 3.5 mph - N/A   Mostly Cloudy
4:53 PM 64.9 °F 19.9 °F 18% 29.68 in 10.0 mi SW 20.7 mph 28.8 mph N/A   Mostly Cloudy
5:53 PM 62.1 °F 23.0 °F 22% 29.71 in 10.0 mi WNW 12.7 mph 24.2 mph N/A   Scattered Clouds
6:53 PM 63.0 °F 19.0 °F 18% 29.69 in 10.0 mi SW 11.5 mph 27.6 mph N/A   Mostly Cloudy
7:13 PM 59.0 °F 28.4 °F 31% 29.83 in 10.0 mi NW 19.6 mph - N/A   Mostly Cloudy
7:53 PM 55.9 °F 28.9 °F 36% 29.75 in 10.0 mi NW 10.4 mph - N/A   Clear
8:53 PM 52.0 °F 33.1 °F 49% 29.80 in 10.0 mi West 9.2 mph - N/A   Partly Cloudy
9:53 PM 48.9 °F 33.1 °F 54% 29.84 in 10.0 mi Variable 3.5 mph - N/A   Clear
10:53 PM 48.0 °F 33.1 °F 56% 29.82 in 10.0 mi WNW 3.5 mph - N/A   Clear
11:53 PM 42.1 °F 32.0 °F 67% 29.83 in 10.0 mi Calm Calm - N/A   Scattered Clouds